Regional Weather Roundup
Issued by NWS

Home | Current Version | Previous Version | Graphics & Text | Print | Product List | Glossary On
Versions: 1 2 3 4 5 6 7 8 9 10 11 12 13 14 15 16 17 18 19 20 21 22 23 24 25 26 27 28 29 30 31 32 33 34 35 36 37 38 39 40 41 42 43 44 45 46 47 48 49 50
000
ASUS43 KLSX 132007
RWRMO

WEATHER SUMMARY FOR MISSOURI
NATIONAL WEATHER SERVICE SPRINGFIELD MO
200 PM CST SAT FEB 13 2016

NOTE: "FAIR" INDICATES FEW OR NO CLOUDS BELOW 12,000 FEET WITH NO
       SIGNIFICANT WEATHER AND/OR OBSTRUCTIONS TO VISIBILITY.
       CURRENT SKY AND/OR WEATHER CONDITIONS ARE NOT AVAILABLE FOR
       CHILLICOTHE AND FARMINGTON.

MOZ001>031-035>038-043-044-053-054-132100-
...NORTHERN AND WESTERN MISSOURI...

CITY           SKY/WX    TMP DP  RH WIND       PRES   REMARKS
KANSAS CTY INT CLOUDY    19   2  47 SE13      30.46F WCI   6
KANSAS C DTWN  CLOUDY    22   2  42 E9        30.48F WCI  12
LEE`S SUMMIT   CLOUDY    20   2  45 E9        30.46F WCI   9
ST JOSEPH      CLOUDY    19   1  45 SE13      30.48F WCI   6
CHILLICOTHE      N/A     18   0  45 E8        30.54F WCI   8
KIRKSVILLE     CLOUDY    17  -1  45 E5        30.54F WCI  10

$$
MOZ066>068-077>081-088>096-101>105-132100-
...SOUTHWEST MISSOURI...

CITY           SKY/WX    TMP DP  RH WIND       PRES   REMARKS
SPRINGFIELD    CLOUDY    36   1  22 E10       30.40F WCI  28
JOPLIN         MOSUNNY   42   3  19 SE8       30.38F

$$
MOZ032>034-039>042-045>050-055>058-069>072-132100-
...CENTRAL MISSOURI...

CITY           SKY/WX    TMP DP  RH WIND       PRES   REMARKS
COLUMBIA       CLOUDY    19   0  43 SE7       30.53F WCI  10
JEFFERSON CITY CLOUDY    20   0  41 NE7       30.56F WCI  11
ROLLA          CLOUDY    19   1  45 E7        30.48F WCI  10
SEDALIA        CLOUDY    21   0  39 E10       30.52F WCI  10
WHITEMAN AFB   CLOUDY    21   1  41 E9        30.48F WCI  10
WARRENSBURG    CLOUDY    21   5  49 E12       30.49F WCI   9
OSAGE BEACH    CLOUDY    21   0  39 E7        30.52F WCI  13

$$
MOZ051-052-059>065-132100-
...EAST CENTRAL MISSOURI...

CITY           SKY/WX    TMP DP  RH WIND       PRES   REMARKS
ST LOUIS INTL  PTSUNNY   22  -1  36 N3        30.57F
SPIRIT OF STL  CLOUDY    20   0  41 E3        30.58F
ST CHARLES     MOSUNNY   22   2  42 NE9       30.58F WCI  12

$$
MOZ072>076-082>087-097>100-106>115-132100-
...SOUTH CENTRAL AND SOUTHEAST MISSOURI...

CITY           SKY/WX    TMP DP  RH WIND       PRES   REMARKS
CAPE GIRARDEAU PTSUNNY   25   3  38 NE5       30.57F WCI  19
FARMINGTON     CLOUDY    21   3  45 CALM      30.53F
POPLAR BLUFF   CLOUDY    27   5  39 VRB3      30.55F
WEST PLAINS    CLOUDY    32  -6  19 SE6       30.46F WCI  26

$$


USA.gov is the U.S. government's official web portal to all federal, state and local government web resources and services.